DECAYED

FENGYUN 1C DEB, 31220 (Decayed)

Orbit data source: Space-Track

FENGYUN 1C DEB, 31220 was space debris in SSO originally from a launch on Mon, 10 May 1999 UTC launched from the Taiyaun Space Center, China (TSC). Fengyun 1C debris stems from the Chinese weather satellite Fengyun-1C, which was intentionally destroyed by a Chinese anti-satellite missile in 2007. This event dramatically increased the amount of space debris, with thousands of trackable fragments posing hazards to satellites and human spaceflight. The Fengyun 1C debris cloud has become a focal point in discussions about space sustainability and the need for international regulations to prevent the creation of new debris.

Not visible in the next 10 days
Identifier
31220, 1999-025BLA
Orbit
Decayed
Country
Flag of CNCN / PRC
Related business
Manufacturer
Unknown
Mission
Decayed spacecraft
Bus & Motor
Unknown
Mass
Unknown
Launch date (UTC)
1999-05-10 (27 years ago)
Launch vehicle
Unknown
Launch site
Taiyaun Space Center, China (TSC)
Object type
Payload
Rocket body
Debris
Shape & HBR
Unknown shape, 0.1 m
Radar Cross Section
Medium (>0.1 m² and <1 m²)

Expand to show TLE details & history
Last TLE update: 2 years ago

TLE from 2 years ago
0 FENGYUN 1C DEB
1 31220U 99025BLA 24366.42674627  .01566354  00000-0  21027-1 0  9995
2 31220  98.9718  73.6547 0015328 339.2963  20.7663 15.55029700933494
Epoch: 2024-12-31T10:14Z
TLE epoch observation values (Epoch: 2024-12-31T10:14:30.877Z)
Latitude
-0.00007°
Longitude
179.69151°
Altitude
395.436 km
Speed
7.679 km/s
True Right ascension
04h 54m 37s
True Declination
0° 00' 00"
Sunlit
Object was in full shadow at epoch
Visualization orbit readout
Latitude
Unknown
Longitude
Unknown
Altitude
Unknown
Speed
Unknown
Apparent Right ascension
Unknown
Apparent Declination
Unknown
Sunlit
N/A
Visualization observer readout
Local Sidereal Time
01:26:14
Azimuth
Unknown
Elevation
Unknown
Doppler factor
Unknown
Orbital elements
Apogee altitude
409.449 km
Perigee altitude
388.673 km
Semi-major axis
6,777.198 km
Eccentricity
0.00153
Inclination
98.9718°
RAAN
73.6547°
Arg. of periapsis
339.2963°
True anomaly
20.82869°
Mean anomaly
20.7663°
Eccentric anomaly
20.79748°
Mean motion
3.89016 °/min
Orbital period
92.54 mins
BSTAR
0.021027
Loading maneuver chart data...
Computing Atmospheric mass density...
Loading historical data...
Loading historical data...
Loading historical data...
Loading historical data...
Loading historical data...
Loading historical data...
Loading historical data...

Documentation

Showing up to 5 results
|